,,Stat6,,Stat2,,Stat8,,Stat9,,Stat10,,Wind1,,Wind1,
time,status,PA1M_AVG,status,PR1M_SUM,status,RH1M_AVG,status,SR1M_AVG,status,TA1M_AVG,status,W1dAve1m,status,W1sAve1m,
2008-03-06, 00:00:00,VALID,918.195,VALID,0,VALID,90.3462,VALID,0.0339617,VALID,20.678,VALID,142,VALID,0.961682,
2008-03-06, 00:01:00,VALID,918.192,VALID,0,VALID,90.5014,VALID,0,VALID,20.6591,VALID,136,VALID,1.01451,
2008-03-06, 00:02:00,VALID,918.192,VALID,0,VALID,90.6743,VALID,0,VALID,20.6461,VALID,119,VALID,0.900195,
2008-03-06, 00:03:00,VALID,918.194,VALID,0,VALID,90.6629,VALID,0,VALID,20.6304,VALID,139,VALID,1.46054,
2008-03-06, 00:04:00,VALID,918.201,VALID,0,VALID,90.6781,VALID,0.0169808,VALID,20.6136,VALID,142,VALID,1.3276,
2008-03-06, 00:05:00,VALID,918.213,VALID,0,VALID,90.6514,VALID,0,VALID,20.6206,VALID,146,VALID,1.33918,
2008-03-06, 00:06:00,VALID,918.212,VALID,0,VALID,90.4899,VALID,0,VALID,20.6301,VALID,145,VALID,1.50985,
2008-03-06, 00:07:00,VALID,918.226,VALID,0,VALID,90.3666,VALID,0.0339617,VALID,20.6628,VALID,149,VALID,1.70653,
2008-03-06, 00:08:00,VALID,918.227,VALID,0,VALID,90.4492,VALID,0,VALID,20.6853,VALID,159,VALID,0.724306,
2008-03-06, 00:09:00,VALID,918.211,VALID,0,VALID,90.6362,VALID,0.0169808,VALID,20.6853,VALID,141,VALID,1.75353,
2008-03-06, 00:10:00,VALID,918.21,VALID,0,VALID,90.9096,VALID,0,VALID,20.6626,VALID,158,VALID,1.5258,
2008-03-06, 00:11:00,VALID,918.219,VALID,0,VALID,91.1206,VALID,0.0169808,VALID,20.6491,VALID,158,VALID,1.55895,
2008-03-06, 00:12:00,VALID,918.213,VALID,0,VALID,91.1588,VALID,0.0169808,VALID,20.6366,VALID,157,VALID,1.64198,
2008-03-06, 00:13:00,VALID,918.207,VALID,0,VALID,91.3546,VALID,0.0169808,VALID,20.6358,VALID,173,VALID,1.14658,
2008-03-06, 00:14:00,VALID,918.2,VALID,0,VALID,91.4551,VALID,0.0169808,VALID,20.6363,VALID,170,VALID,1.33849,
2008-03-06, 00:15:00,VALID,918.197,VALID,0,VALID,91.6534,VALID,0.0169808,VALID,20.6334,VALID,160,VALID,1.2037,
2008-03-06, 00:16:00,VALID,918.19,VALID,0,VALID,91.6751,VALID,0.0169808,VALID,20.6234,VALID,161,VALID,0.884766,
2008-03-06, 00:17:00,VALID,918.185,VALID,0,VALID,91.7259,VALID,0.0169808,VALID,20.6169,VALID,151,VALID,0.612805,
2008-03-06, 00:18:00,VALID,918.196,VALID,0,VALID,91.7234,VALID,0,VALID,20.5971,VALID,165,VALID,1.23457,
2008-03-06, 00:19:00,VALID,918.198,VALID,0,VALID,91.8709,VALID,0.0509425,VALID,20.5709,VALID,155,VALID,0.230646,
2008-03-06, 00:20:00,VALID,918.196,VALID,0,VALID,92.0286,VALID,0.0169808,VALID,20.5582,VALID,141,VALID,0.190589,
2008-03-06, 00:21:00,VALID,918.195,VALID,0,VALID,92.1201,VALID,0.0509425,VALID,20.5382,VALID,168,VALID,0.437322,
2008-03-06, 00:22:00,VALID,918.191,VALID,0,VALID,92.1545,VALID,0.0679233,VALID,20.5287,VALID,163,VALID,1.14589,
2008-03-06, 00:23:00,VALID,918.177,VALID,0,VALID,92.2308,VALID,0,VALID,20.5225,VALID,166,VALID,1.69455,
2008-03-06, 00:24:00,VALID,918.179,VALID,0,VALID,92.2803,VALID,0,VALID,20.519,VALID,171,VALID,1.15141,
2008-03-06, 00:25:00,VALID,918.179,VALID,0,VALID,92.3236,VALID,0.0169808,VALID,20.5222,VALID,185,VALID,0.842152,
2008-03-06, 00:26:00,VALID,918.186,VALID,0,VALID,92.3592,VALID,0,VALID,20.5157,VALID,171,VALID,0.628299,
2008-03-06, 00:27:00,VALID,918.189,VALID,0,VALID,92.3643,VALID,0.0169808,VALID,20.5225,VALID,178,VALID,0.736328,
2008-03-06, 00:28:00,VALID,918.195,VALID,0,VALID,92.3681,VALID,0.0339617,VALID,20.5122,VALID,168,VALID,1.07924,
2008-03-06, 00:29:00,VALID,918.201,VALID,0,VALID,92.4329,VALID,0,VALID,20.5068,VALID,162,VALID,1.20732,
2008-03-06, 00:30:00,VALID,918.216,VALID,0,VALID,92.5207,VALID,0.0169808,VALID,20.5,VALID,182,VALID,0.207589,
2008-03-06, 00:31:00,VALID,918.227,VALID,0,VALID,92.5944,VALID,0.0339617,VALID,20.496,VALID,183,VALID,0.339753,
2008-03-06, 00:32:00,VALID,918.233,VALID,0,VALID,92.644,VALID,0,VALID,20.4868,VALID,176,VALID,1.6293,
2008-03-06, 00:33:00,VALID,918.227,VALID,0,VALID,92.6135,VALID,0.0169808,VALID,20.4638,VALID,162,VALID,1.66921,
2008-03-06, 00:34:00,VALID,918.23,VALID,0,VALID,92.6351,VALID,0.0339617,VALID,20.4706,VALID,163,VALID,1.02934,
2008-03-06, 00:35:00,VALID,918.226,VALID,0,VALID,92.7407,VALID,0.0849042,VALID,20.47,VALID,168,VALID,0.783203,
2008-03-06, 00:36:00,VALID,918.219,VALID,0,VALID,92.8793,VALID,0.0339617,VALID,20.4543,VALID,182,VALID,1.04551,
2008-03-06, 00:37:00,VALID,918.192,VALID,0,VALID,92.981,VALID,0.0509425,VALID,20.4481,VALID,174,VALID,0.956745,
2008-03-06, 00:38:00,VALID,918.18,VALID,0,VALID,93.0013,VALID,0.0509425,VALID,20.4381,VALID,157,VALID,1.24001,
2008-03-06, 00:39:00,VALID,918.145,VALID,0,VALID,93.1018,VALID,0.0679233,VALID,20.4019,VALID,142,VALID,1.48531,
2008-03-06, 00:40:00,VALID,918.11,VALID,0,VALID,93.1692,VALID,0.0339617,VALID,20.3765,VALID,140,VALID,1.22402,
2008-03-06, 00:41:00,VALID,918.08,VALID,0,VALID,93.2862,VALID,0.0169808,VALID,20.3402,VALID,140,VALID,1.00223,
2008-03-06, 00:42:00,VALID,918.039,VALID,0,VALID,93.2785,VALID,0.0339617,VALID,20.3373,VALID,142,VALID,2.32222,
2008-03-06, 00:43:00,VALID,918.009,VALID,0,VALID,93.2468,VALID,0,VALID,20.328,VALID,148,VALID,1.84097,
2008-03-06, 00:44:00,VALID,917.997,VALID,0,VALID,93.243,VALID,0,VALID,20.3413,VALID,124,VALID,1.2513,
2008-03-06, 00:45:00,VALID,917.966,VALID,0,VALID,93.304,VALID,-0.0169808,VALID,20.3251,VALID,128,VALID,1.91146,
2008-03-06, 00:46:00,VALID,917.957,VALID,0,VALID,93.3396,VALID,-0.0339617,VALID,20.3191,VALID,142,VALID,1.98964,
2008-03-06, 00:47:00,VALID,917.943,VALID,0,VALID,93.3459,VALID,-0.0169808,VALID,20.3113,VALID,145,VALID,1.31383,
2008-03-06, 00:48:00,VALID,917.903,VALID,0,VALID,93.3803,VALID,0,VALID,20.3213,VALID,153,VALID,1.04722,
2008-03-06, 00:49:00,VALID,917.893,VALID,0,VALID,93.3345,VALID,-0.0169808,VALID,20.3151,VALID,136,VALID,1.36814,
2008-03-06, 00:50:00,VALID,917.868,VALID,0,VALID,93.3587,VALID,0,VALID,20.3188,VALID,150,VALID,0.99858,
2008-03-06, 00:51:00,VALID,917.866,VALID,0,VALID,93.4426,VALID,0.0169808,VALID,20.2981,VALID,145,VALID,0.608817,
2008-03-06, 00:52:00,VALID,917.849,VALID,0,VALID,93.5062,VALID,0,VALID,20.3053,VALID,138,VALID,0.13101,
2008-03-06, 00:53:00,VALID,917.832,VALID,0,VALID,93.5977,VALID,0,VALID,20.2756,VALID,135,VALID,0.383878,
2008-03-06, 00:54:00,VALID,917.811,VALID,0,VALID,93.7427,VALID,0,VALID,20.2626,VALID,144,VALID,0.340701,
2008-03-06, 00:55:00,VALID,917.775,VALID,0,VALID,93.9182,VALID,0,VALID,20.2432,VALID,138,VALID,0.239211,
2008-03-06, 00:56:00,VALID,917.767,VALID,0,VALID,94.0517,VALID,-0.0169808,VALID,20.2342,VALID,128,VALID,0.00260417,
2008-03-06, 00:57:00,VALID,917.755,VALID,0,VALID,94.161,VALID,0,VALID,20.208,VALID,141,VALID,1.00449,
2008-03-06, 00:58:00,VALID,917.741,VALID,0,VALID,94.3378,VALID,0.0339617,VALID,20.198,VALID,141,VALID,0.854514,
2008-03-06, 00:59:00,VALID,917.726,VALID,0,VALID,94.3759,VALID,-0.0169808,VALID,20.1725,VALID,140,VALID,0.479833,
2008-03-06, 01:00:00,VALID,917.719,VALID,0,VALID,94.5451,VALID,-0.0169808,VALID,20.1596,VALID,143,VALID,0.244913,
2008-03-06, 01:01:00,VALID,917.709,VALID,0,VALID,94.6671,VALID,0,VALID,20.1566,VALID,144,VALID,0.0456032,
2008-03-06, 01:02:00,VALID,917.707,VALID,0,VALID,94.7142,VALID,0,VALID,20.1301,VALID,153,VALID,0.0442708,
2008-03-06, 01:03:00,VALID,917.693,VALID,0,VALID,94.8248,VALID,0.0169808,VALID,20.1239,VALID,153,VALID,0.261991,
2008-03-06, 01:04:00,VALID,917.698,VALID,0,VALID,94.8731,VALID,0.0169808,VALID,20.1004,VALID,164,VALID,0.301215,
2008-03-06, 01:05:00,VALID,917.682,VALID,0,VALID,95.0207,VALID,0,VALID,20.0971,VALID,160,VALID,0.247332,
2008-03-06, 01:06:00,VALID,917.682,VALID,0,VALID,95.0334,VALID,-0.0169808,VALID,20.0907,VALID,157,VALID,0.15718,
2008-03-06, 01:07:00,VALID,917.667,VALID,0,VALID,95.0715,VALID,-0.0169808,VALID,20.0847,VALID,157,VALID,0.204985,
2008-03-06, 01:08:00,VALID,917.649,VALID,0,VALID,95.1071,VALID,-0.0169808,VALID,20.0749,VALID,164,VALID,1.11166,
2008-03-06, 01:09:00,VALID,917.628,VALID,0,VALID,95.186,VALID,0,VALID,20.0617,VALID,174,VALID,0.604353,
2008-03-06, 01:10:00,VALID,917.619,VALID,0,VALID,95.2445,VALID,0,VALID,20.0617,VALID,161,VALID,0.956659,
2008-03-06, 01:11:00,VALID,917.607,VALID,0,VALID,95.3131,VALID,-0.0169808,VALID,20.0555,VALID,160,VALID,1.07679,
2008-03-06, 01:12:00,VALID,917.603,VALID,0,VALID,95.3322,VALID,-0.0169808,VALID,20.0357,VALID,159,VALID,1.7939,
2008-03-06, 01:13:00,VALID,917.599,VALID,0,VALID,95.3907,VALID,0.0679233,VALID,20.032,VALID,155,VALID,1.00171,
2008-03-06, 01:14:00,VALID,917.593,VALID,0,VALID,95.4479,VALID,0.0509425,VALID,20.0252,VALID,164,VALID,0.455915,
2008-03-06, 01:15:00,VALID,917.587,VALID,0,VALID,95.5903,VALID,0.0849042,VALID,20.0252,VALID,154,VALID,1.34473,
2008-03-06, 01:16:00,VALID,917.592,VALID,0,VALID,95.5191,VALID,0.101885,VALID,20.0023,VALID,145,VALID,1.90495,
2008-03-06, 01:17:00,VALID,917.594,VALID,0,VALID,95.5751,VALID,0.0509425,VALID,19.9988,VALID,148,VALID,1.92207,
2008-03-06, 01:18:00,VALID,917.59,VALID,0,VALID,95.6654,VALID,0.0849042,VALID,19.9826,VALID,150,VALID,1.91311,
2008-03-06, 01:19:00,VALID,917.592,VALID,0,VALID,95.7162,VALID,0.0679233,VALID,19.9566,VALID,146,VALID,1.98473,
2008-03-06, 01:20:00,VALID,917.599,VALID,0,VALID,95.823,VALID,0.101885,VALID,19.9429,VALID,155,VALID,1.55804,
2008-03-06, 01:21:00,VALID,917.617,VALID,0,VALID,95.8777,VALID,0.101885,VALID,19.9464,VALID,159,VALID,2.22465,
2008-03-06, 01:22:00,VALID,917.63,VALID,0,VALID,95.9235,VALID,0.101885,VALID,19.9434,VALID,166,VALID,1.91461,
2008-03-06, 01:23:00,VALID,917.64,VALID,0,VALID,96.0468,VALID,0.0849042,VALID,19.9234,VALID,166,VALID,1.59109,
2008-03-06, 01:24:00,VALID,917.635,VALID,0,VALID,96.099,VALID,0.101885,VALID,19.9267,VALID,163,VALID,2.40792,
2008-03-06, 01:25:00,VALID,917.632,VALID,0,VALID,96.1778,VALID,0.135847,VALID,19.9199,VALID,146,VALID,1.92918,
2008-03-06, 01:26:00,VALID,917.627,VALID,0,VALID,96.2592,VALID,0.101885,VALID,19.9039,VALID,150,VALID,1.52947,
2008-03-06, 01:27:00,VALID,917.609,VALID,0,VALID,96.3393,VALID,0.118866,VALID,19.8845,VALID,152,VALID,1.8748,
2008-03-06, 01:28:00,VALID,917.614,VALID,0,VALID,96.4665,VALID,-0.0509425,VALID,19.8778,VALID,153,VALID,1.29954,
2008-03-06, 01:29:00,VALID,917.61,VALID,0,VALID,96.5962,VALID,-0.0509425,VALID,19.8578,VALID,165,VALID,1.92478,
2008-03-06, 01:30:00,VALID,917.595,VALID,0,VALID,96.7195,VALID,-0.0679233,VALID,19.8356,VALID,148,VALID,1.73379,
2008-03-06, 01:31:00,VALID,917.586,VALID,0,VALID,96.9484,VALID,-0.101885,VALID,19.8129,VALID,164,VALID,1.20445,
2008-03-06, 01:32:00,VALID,917.586,VALID,0,VALID,97.0807,VALID,-0.0849042,VALID,19.7936,VALID,145,VALID,1.74295,
2008-03-06, 01:33:00,VALID,917.581,VALID,0.2,VALID,97.3401,VALID,-0.0849042,VALID,19.7674,VALID,159,VALID,1.46429,
2008-03-06, 01:34:00,VALID,917.59,VALID,0,VALID,97.4354,VALID,-0.0679233,VALID,19.7347,VALID,163,VALID,2.2331,
2008-03-06, 01:35:00,VALID,917.588,VALID,0,VALID,97.56,VALID,-0.101885,VALID,19.722,VALID,149,VALID,1.59356,
2008-03-06, 01:36:00,VALID,917.596,VALID,0,VALID,97.7241,VALID,-0.0849042,VALID,19.7255,VALID,142,VALID,1.30614,
2008-03-06, 01:37:00,VALID,917.593,VALID,0,VALID,97.7991,VALID,-0.0509425,VALID,19.6893,VALID,138,VALID,1.31195,
2008-03-06, 01:38:00,VALID,917.57,VALID,0,VALID,97.8932,VALID,-0.0679233,VALID,19.6701,VALID,141,VALID,1.80971,
2008-03-06, 01:39:00,VALID,917.564,VALID,0,VALID,97.9504,VALID,-0.0849042,VALID,19.6636,VALID,134,VALID,1.70332,
2008-03-06, 01:40:00,VALID,917.572,VALID,0,VALID,98.0115,VALID,-0.101885,VALID,19.6511,VALID,135,VALID,1.59566,
2008-03-06, 01:41:00,VALID,917.574,VALID,0,VALID,98.0992,VALID,-0.0509425,VALID,19.6412,VALID,121,VALID,1.35956,
2008-03-06, 01:42:00,VALID,917.562,VALID,0,VALID,98.2378,VALID,-0.0679233,VALID,19.6247,VALID,129,VALID,1.14383,
2008-03-06, 01:43:00,VALID,917.555,VALID,0,VALID,98.3662,VALID,0.0339617,VALID,19.6072,VALID,115,VALID,1.30418,
2008-03-06, 01:44:00,VALID,917.556,VALID,0,VALID,98.4934,VALID,0.0169808,VALID,19.5813,VALID,129,VALID,1.29648,
2008-03-06, 01:45:00,VALID,917.565,VALID,0,VALID,98.6663,VALID,0.0509425,VALID,19.5481,VALID,125,VALID,0.903646,
2008-03-06, 01:46:00,VALID,917.561,VALID,0.2,VALID,98.7986,VALID,0.0339617,VALID,19.5221,VALID,132,VALID,0.633721,
2008-03-06, 01:47:00,VALID,917.563,VALID,0,VALID,98.9537,VALID,0.0339617,VALID,19.5096,VALID,137,VALID,0.13205,
2008-03-06, 01:48:00,VALID,917.549,VALID,0,VALID,99.0567,VALID,0.0339617,VALID,19.4929,VALID,126,VALID,1.0476,
2008-03-06, 01:49:00,VALID,917.545,VALID,0,VALID,99.175,VALID,0.0679233,VALID,19.4894,VALID,120,VALID,1.04916,
2008-03-06, 01:50:00,VALID,917.514,VALID,0,VALID,99.2551,VALID,0.0339617,VALID,19.4772,VALID,114,VALID,1.02679,
2008-03-06, 01:51:00,VALID,917.497,VALID,0,VALID,99.3072,VALID,0.0339617,VALID,19.4607,VALID,119,VALID,1.05017,
2008-03-06, 01:52:00,VALID,917.478,VALID,0,VALID,99.3835,VALID,0.0509425,VALID,19.4575,VALID,123,VALID,0.9641,
2008-03-06, 01:53:00,VALID,917.475,VALID,0,VALID,99.4611,VALID,0.0169808,VALID,19.441,VALID,118,VALID,0.991122,
2008-03-06, 01:54:00,VALID,917.468,VALID,0,VALID,99.5565,VALID,0.0509425,VALID,19.431,VALID,132,VALID,1.38281,
2008-03-06, 01:55:00,VALID,917.45,VALID,0.2,VALID,99.4713,VALID,0.0509425,VALID,19.4178,VALID,117,VALID,1.69713,
2008-03-06, 01:56:00,VALID,917.437,VALID,0,VALID,99.2754,VALID,0.0339617,VALID,19.4642,VALID,143,VALID,1.83523,
2008-03-06, 01:57:00,VALID,917.431,VALID,0,VALID,98.9308,VALID,0,VALID,19.4994,VALID,152,VALID,2.0375,
2008-03-06, 01:58:00,VALID,917.427,VALID,0,VALID,98.824,VALID,-0.0849042,VALID,19.5336,VALID,140,VALID,1.38245,
2008-03-06, 01:59:00,VALID,917.422,VALID,0,VALID,98.7007,VALID,-0.101885,VALID,19.5563,VALID,146,VALID,1.5754,
2008-03-06, 02:00:00,VALID,917.4,VALID,0,VALID,98.59,VALID,-0.0509425,VALID,19.5466,VALID,129,VALID,1.34411,
2008-03-06, 02:01:00,VALID,917.377,VALID,0,VALID,98.5951,VALID,-0.0679233,VALID,19.5533,VALID,131,VALID,1.61477,
2008-03-06, 02:02:00,VALID,917.362,VALID,0,VALID,98.6485,VALID,-0.0849042,VALID,19.5468,VALID,146,VALID,1.95293,
2008-03-06, 02:03:00,VALID,917.341,VALID,0,VALID,98.6791,VALID,-0.0509425,VALID,19.5306,VALID,122,VALID,1.94949,
2008-03-06, 02:04:00,VALID,917.329,VALID,0,VALID,98.7375,VALID,-0.0509425,VALID,19.5436,VALID,117,VALID,1.45033,
2008-03-06, 02:05:00,VALID,917.313,VALID,0,VALID,98.763,VALID,-0.101885,VALID,19.5273,VALID,138,VALID,1.5034,
2008-03-06, 02:06:00,VALID,917.305,VALID,0,VALID,98.7986,VALID,-0.0849042,VALID,19.5111,VALID,129,VALID,1.33125,
2008-03-06, 02:07:00,VALID,917.294,VALID,0.2,VALID,98.8278,VALID,-0.0339617,VALID,19.5106,VALID,140,VALID,1.51017,
2008-03-06, 02:08:00,VALID,917.297,VALID,0,VALID,98.721,VALID,-0.0339617,VALID,19.5174,VALID,116,VALID,1.7791,
2008-03-06, 02:09:00,VALID,917.289,VALID,0,VALID,98.6015,VALID,-0.0679233,VALID,19.5266,VALID,123,VALID,1.45238,
2008-03-06, 02:10:00,VALID,917.276,VALID,0,VALID,98.5315,VALID,-0.0849042,VALID,19.5466,VALID,141,VALID,1.38101,
2008-03-06, 02:11:00,VALID,917.273,VALID,0,VALID,98.529,VALID,-0.0339617,VALID,19.5598,VALID,141,VALID,1.04002,
2008-03-06, 02:12:00,VALID,917.266,VALID,0,VALID,98.6218,VALID,-0.0509425,VALID,19.5433,VALID,144,VALID,1.10785,
2008-03-06, 02:13:00,VALID,917.262,VALID,0,VALID,98.6587,VALID,0,VALID,19.5291,VALID,138,VALID,0.502046,
2008-03-06, 02:14:00,VALID,917.248,VALID,0,VALID,98.7426,VALID,0.0849042,VALID,19.5189,VALID,147,VALID,0.185404,
2008-03-06, 02:15:00,VALID,917.259,VALID,0,VALID,98.7999,VALID,0.0169808,VALID,19.4897,VALID,146,VALID,1.23801,
2008-03-06, 02:16:00,VALID,917.244,VALID,0,VALID,98.9461,VALID,0.0509425,VALID,19.4662,VALID,154,VALID,0.646484,
2008-03-06, 02:17:00,VALID,917.217,VALID,0,VALID,99.0351,VALID,0.0679233,VALID,19.4632,VALID,144,VALID,0.612233,
2008-03-06, 02:18:00,VALID,917.211,VALID,0,VALID,99.105,VALID,0.0339617,VALID,19.457,VALID,139,VALID,0.733665,
2008-03-06, 02:19:00,VALID,917.204,VALID,0,VALID,99.1559,VALID,0.101885,VALID,19.4408,VALID,132,VALID,0.93821,
2008-03-06, 02:20:00,VALID,917.183,VALID,0,VALID,99.2284,VALID,0.0339617,VALID,19.4281,VALID,153,VALID,1.25709,
2008-03-06, 02:21:00,VALID,917.174,VALID,0,VALID,99.3072,VALID,0.0339617,VALID,19.4253,VALID,157,VALID,1.15536,
2008-03-06, 02:22:00,VALID,917.174,VALID,0,VALID,99.3708,VALID,0.0509425,VALID,19.3949,VALID,161,VALID,1.016,
2008-03-06, 02:23:00,VALID,917.145,VALID,0,VALID,99.4624,VALID,0.0339617,VALID,19.3991,VALID,167,VALID,0.920201,
2008-03-06, 02:24:00,VALID,917.158,VALID,0,VALID,99.5616,VALID,0.0509425,VALID,19.3954,VALID,159,VALID,0.773785,
2008-03-06, 02:25:00,VALID,917.153,VALID,0,VALID,99.6175,VALID,0.0849042,VALID,19.3692,VALID,125,VALID,1.16883,
2008-03-06, 02:26:00,VALID,917.15,VALID,0,VALID,99.737,VALID,0.0679233,VALID,19.343,VALID,152,VALID,1.06324,
2008-03-06, 02:27:00,VALID,917.138,VALID,0,VALID,99.9565,VALID,0.0169808,VALID,19.3242,VALID,145,VALID,0.905231,
2008-03-06, 02:28:00,VALID,917.135,VALID,0.2,VALID,100,VALID,-0.0509425,VALID,19.3062,VALID,137,VALID,1.29836,
2008-03-06, 02:29:00,VALID,917.115,VALID,0,VALID,99.9903,VALID,-0.0679233,VALID,19.2903,VALID,131,VALID,1.29387,
2008-03-06, 02:30:00,VALID,917.125,VALID,0,VALID,99.854,VALID,-0.0679233,VALID,19.316,VALID,140,VALID,0.980903,
2008-03-06, 02:31:00,VALID,917.129,VALID,0,VALID,99.6493,VALID,-0.0849042,VALID,19.3746,VALID,150,VALID,1.37481,
2008-03-06, 02:32:00,VALID,917.125,VALID,0,VALID,99.5323,VALID,-0.0849042,VALID,19.3968,VALID,155,VALID,1.29764,
2008-03-06, 02:33:00,VALID,917.129,VALID,0,VALID,99.5641,VALID,-0.101885,VALID,19.3938,VALID,160,VALID,1.17416,
2008-03-06, 02:34:00,VALID,917.115,VALID,0,VALID,99.6493,VALID,-0.101885,VALID,19.3881,VALID,129,VALID,0.943105,
2008-03-06, 02:35:00,VALID,917.114,VALID,0,VALID,99.779,VALID,-0.0849042,VALID,19.3584,VALID,143,VALID,1.28289,
2008-03-06, 02:36:00,VALID,917.099,VALID,0,VALID,99.9578,VALID,-0.0849042,VALID,19.3352,VALID,141,VALID,1.58221,
2008-03-06, 02:37:00,VALID,917.083,VALID,0,VALID,100,VALID,-0.0509425,VALID,19.3192,VALID,131,VALID,1.54906,
2008-03-06, 02:38:00,VALID,917.09,VALID,0,VALID,100,VALID,-0.0849042,VALID,19.303,VALID,134,VALID,1.52304,
2008-03-06, 02:39:00,VALID,917.083,VALID,0.2,VALID,100,VALID,-0.101885,VALID,19.2873,VALID,126,VALID,1.5645,
2008-03-06, 02:40:00,VALID,917.056,VALID,0,VALID,100,VALID,-0.0679233,VALID,19.2643,VALID,125,VALID,1.59699,
2008-03-06, 02:41:00,VALID,917.051,VALID,0,VALID,100,VALID,-0.0509425,VALID,19.2374,VALID,143,VALID,1.30451,
2008-03-06, 02:42:00,VALID,917.026,VALID,0,VALID,100,VALID,-0.0679233,VALID,19.2346,VALID,140,VALID,1.58454,
2008-03-06, 02:43:00,VALID,917.016,VALID,0,VALID,100,VALID,-0.0169808,VALID,19.2479,VALID,142,VALID,1.70675,
2008-03-06, 02:44:00,VALID,917.01,VALID,0,VALID,100,VALID,-0.0849042,VALID,19.2633,VALID,132,VALID,1.62919,
2008-03-06, 02:45:00,VALID,917,VALID,0.2,VALID,100,VALID,-0.0849042,VALID,19.2703,VALID,131,VALID,2.26684,
2008-03-06, 02:46:00,VALID,916.984,VALID,0,VALID,100,VALID,-0.0849042,VALID,19.2868,VALID,143,VALID,1.65174,
2008-03-06, 02:47:00,VALID,916.968,VALID,0,VALID,100,VALID,-0.0509425,VALID,19.2928,VALID,140,VALID,2.26243,
2008-03-06, 02:48:00,VALID,916.957,VALID,0,VALID,99.9977,VALID,-0.0509425,VALID,19.2998,VALID,135,VALID,2.18426,
2008-03-06, 02:49:00,VALID,916.947,VALID,0,VALID,99.8222,VALID,-0.0339617,VALID,19.3352,VALID,152,VALID,2.16335,
2008-03-06, 02:50:00,VALID,916.934,VALID,0,VALID,99.6048,VALID,-0.0339617,VALID,19.3801,VALID,154,VALID,1.42702,
2008-03-06, 02:51:00,VALID,916.951,VALID,0,VALID,99.5501,VALID,-0.0169808,VALID,19.4063,VALID,144,VALID,1.3125,
2008-03-06, 02:52:00,VALID,916.943,VALID,0,VALID,99.615,VALID,-0.0509425,VALID,19.4001,VALID,147,VALID,2.14375,
2008-03-06, 02:53:00,VALID,916.937,VALID,0.2,VALID,99.6798,VALID,-0.0169808,VALID,19.3864,VALID,146,VALID,1.7237,
2008-03-06, 02:54:00,VALID,916.932,VALID,0,VALID,99.704,VALID,-0.0339617,VALID,19.3834,VALID,151,VALID,1.8992,
2008-03-06, 02:55:00,VALID,916.929,VALID,0,VALID,99.7434,VALID,-0.0169808,VALID,19.3874,VALID,151,VALID,2.01953,
2008-03-06, 02:56:00,VALID,916.904,VALID,0,VALID,99.779,VALID,-0.0679233,VALID,19.3843,VALID,158,VALID,1.90625,
2008-03-06, 02:57:00,VALID,916.901,VALID,0,VALID,99.8667,VALID,-0.0679233,VALID,19.3746,VALID,138,VALID,1.30433,
2008-03-06, 02:58:00,VALID,916.892,VALID,0,VALID,99.9583,VALID,-0.0679233,VALID,19.3579,VALID,145,VALID,1.30078,
2008-03-06, 02:59:00,VALID,916.882,VALID,0.2,VALID,99.9939,VALID,-0.0509425,VALID,19.3347,VALID,147,VALID,1.38445,
2008-03-06, 03:00:00,VALID,916.885,VALID,0,VALID,100,VALID,-0.0679233,VALID,19.3185,VALID,141,VALID,0.843945,
2008-03-06, 03:01:00,VALID,916.85,VALID,0,VALID,100,VALID,-0.0339617,VALID,19.3023,VALID,157,VALID,1.6875,
2008-03-06, 03:02:00,VALID,916.837,VALID,0,VALID,100,VALID,-0.0339617,VALID,19.3058,VALID,146,VALID,1.75539,
2008-03-06, 03:03:00,VALID,916.817,VALID,0,VALID,100,VALID,-0.0509425,VALID,19.3255,VALID,170,VALID,1.47812,
2008-03-06, 03:04:00,VALID,916.805,VALID,0,VALID,100,VALID,-0.0849042,VALID,19.3354,VALID,157,VALID,1.27504,
2008-03-06, 03:05:00,VALID,916.788,VALID,0,VALID,100,VALID,-0.0509425,VALID,19.3215,VALID,150,VALID,1.22175,
2008-03-06, 03:06:00,VALID,916.768,VALID,0.2,VALID,100,VALID,-0.0849042,VALID,19.3127,VALID,151,VALID,1.37557,
2008-03-06, 03:07:00,VALID,916.751,VALID,0,VALID,100,VALID,-0.0849042,VALID,19.3125,VALID,146,VALID,1.01644,
2008-03-06, 03:08:00,VALID,916.732,VALID,0,VALID,100,VALID,-0.0679233,VALID,19.3058,VALID,182,VALID,1.22313,
2008-03-06, 03:09:00,VALID,916.713,VALID,0,VALID,100,VALID,-0.0339617,VALID,19.2928,VALID,172,VALID,1.07738,
2008-03-06, 03:10:00,VALID,916.71,VALID,0,VALID,100,VALID,-0.0849042,VALID,19.2733,VALID,147,VALID,1.30869,
2008-03-06, 03:11:00,VALID,916.699,VALID,0,VALID,100,VALID,-0.0339617,VALID,19.2671,VALID,145,VALID,0.812314,
2008-03-06, 03:12:00,VALID,916.707,VALID,0,VALID,100,VALID,-0.0679233,VALID,19.2471,VALID,126,VALID,1.07344,
2008-03-06, 03:13:00,VALID,916.687,VALID,0,VALID,100,VALID,-0.0339617,VALID,19.2311,VALID,138,VALID,1.19635,
2008-03-06, 03:14:00,VALID,916.668,VALID,0,VALID,100,VALID,-0.0339617,VALID,19.2249,VALID,163,VALID,0.478087,
2008-03-06, 03:15:00,VALID,916.666,VALID,0,VALID,100,VALID,-0.0849042,VALID,19.2217,VALID,152,VALID,0.935192,
2008-03-06, 03:16:00,VALID,916.67,VALID,0.2,VALID,100,VALID,-0.0169808,VALID,19.2119,VALID,138,VALID,0.925781,
2008-03-06, 03:17:00,VALID,916.658,VALID,0,VALID,100,VALID,-0.0169808,VALID,19.2057,VALID,116,VALID,0.553472,
2008-03-06, 03:18:00,VALID,916.637,VALID,0,VALID,100,VALID,-0.0339617,VALID,19.2022,VALID,139,VALID,0.749273,
2008-03-06, 03:19:00,VALID,916.626,VALID,0,VALID,100,VALID,-0.0509425,VALID,19.1959,VALID,158,VALID,1.30774,
2008-03-06, 03:20:00,VALID,916.607,VALID,0,VALID,100,VALID,-0.0169808,VALID,19.182,VALID,158,VALID,1.5506,
2008-03-06, 03:21:00,VALID,916.599,VALID,0,VALID,100,VALID,-0.0849042,VALID,19.2152,VALID,154,VALID,1.19741,
2008-03-06, 03:22:00,VALID,916.581,VALID,0,VALID,100,VALID,-0.0169808,VALID,19.2346,VALID,153,VALID,1.02816,
2008-03-06, 03:23:00,VALID,916.573,VALID,0,VALID,100,VALID,-0.0169808,VALID,19.2476,VALID,160,VALID,1.28032,
2008-03-06, 03:24:00,VALID,916.541,VALID,0,VALID,100,VALID,-0.0849042,VALID,19.2511,VALID,176,VALID,0.362805,
2008-03-06, 03:25:00,VALID,916.533,VALID,0,VALID,100,VALID,-0.0169808,VALID,19.2469,VALID,177,VALID,0.944727,
2008-03-06, 03:26:00,VALID,916.514,VALID,0,VALID,100,VALID,-0.0339617,VALID,19.2376,VALID,171,VALID,1.10121,
2008-03-06, 03:27:00,VALID,916.515,VALID,0,VALID,100,VALID,0,VALID,19.2279,VALID,177,VALID,0.836285,
2008-03-06, 03:28:00,VALID,916.513,VALID,0,VALID,100,VALID,0,VALID,19.2414,VALID,161,VALID,0.976372,
2008-03-06, 03:29:00,VALID,916.521,VALID,0,VALID,100,VALID,-0.0339617,VALID,19.2244,VALID,156,VALID,1.44512,
2008-03-06, 03:30:00,VALID,916.514,VALID,0,VALID,100,VALID,-0.0509425,VALID,19.2376,VALID,178,VALID,1.31123,
2008-03-06, 03:31:00,VALID,916.498,VALID,0,VALID,100,VALID,-0.0169808,VALID,19.2541,VALID,177,VALID,0.858594,
2008-03-06, 03:32:00,VALID,916.513,VALID,0,VALID,100,VALID,0,VALID,19.2573,VALID,153,VALID,1.14613,
2008-03-06, 03:33:00,VALID,916.519,VALID,0.2,VALID,100,VALID,-0.0509425,VALID,19.2703,VALID,149,VALID,0.960069,